Theta_e
309 309 309 309 309 309 309 309 308 307 307 307 306 307 310 311 312 312 313 314 316 315 316 316 317 316 316 316 316 313 312 313 315 318 316 314 314 313 311 313 312 310 310 310 310
309 309 309 309 309 309 309 309 308 308 307 307 307 306 309 311 312 314 313 315 316 315 316 315 314 314 313 317 316 315 313 313 313 316 315 315 312 313 313 311 310 311 308 308 308
310 310 310 310 309 309 309 309 309 309 308 307 307 306 308 311 316 315 318 315 315 314 315 316 316 314 316 316 316 315 314 314 316 316 314 315 313 311 311 311 309 310 309 304 304
312 311 311 310 310 310 310 310 310 310 309 308 307 306 308 313 309 317 315 317 314 313 315 314 314 315 316 316 315 317 314 314 316 317 314 315 313 312 309 314 310 308 308 303 302
314 312 311 311 310 310 310 310 310 310 310 309 307 306 310 315 312 313 315 314 313 313 314 312 314 315 316 315 316 316 316 315 314 313 313 313 312 312 311 309 307 307 306 304 304
315 315 314 314 312 310 307 308 309 310 310 310 309 306 312 308 311 314 314 313 312 314 313 312 312 312 315 315 314 314 315 314 312 313 313 314 313 313 313 311 308 308 308 304 304
315 315 315 315 314 312 310 308 306 305 307 309 308 306 316 308 311 313 313 312 312 313 311 312 313 314 312 314 314 314 314 311 312 312 312 311 313 312 313 312 309 308 306 306 304
316 316 315 315 314 312 310 310 308 307 305 306 306 312 307 311 313 313 312 311 311 312 312 313 313 312 314 312 311 314 313 312 312 310 312 311 314 312 310 310 310 309 307 305 306
316 316 315 315 314 313 310 309 309 307 307 307 311 313 309 312 312 313 312 311 311 310 311 312 313 311 313 311 310 310 310 310 311 311 312 311 313 312 310 308 309 309 307 307 307
316 316 316 315 314 312 310 310 309 310 313 314 316 312 311 311 313 312 311 311 310 310 310 312 309 310 309 309 312 311 310 310 311 312 311 311 312 313 311 308 307 307 305 304 305
317 316 316 316 315 312 310 311 307 307 312 306 308 309 311 312 313 311 310 310 311 310 310 310 310 311 312 310 312 309 309 310 309 310 313 312 312 313 313 310 307 308 310 311 310
318 317 317 317 315 312 311 311 309 309 309 307 307 308 311 312 312 310 310 310 311 311 310 311 311 311 310 309 311 311 311 311 311 310 309 310 311 311 310 312 312 311 311 310 310
320 318 317 317 314 312 308 307 307 309 309 307 306 306 306 310 310 311 308 309 310 310 310 312 312 311 310 310 311 311 312 312 312 310 308 308 311 309 308 309 310 308 309 311 311
322 319 318 317 315 312 310 309 307 309 304 307 308 308 309 308 307 304 306 309 310 311 309 310 310 311 311 312 311 313 310 311 310 311 312 309 314 310 309 309 309 309 309 309 309
323 320 318 317 316 313 312 306 307 306 314 309 309 309 308 306 306 305 303 307 309 310 310 309 311 310 310 312 310 313 310 309 310 310 310 311 312 312 308 309 309 310 308 308 309
323 322 318 316 314 316 311 307 308 307 314 309 307 308 309 309 307 304 304 304 305 307 306 307 307 308 309 309 307 308 310 309 307 308 312 311 311 312 308 309 309 308 308 308 309
322 321 319 317 315 314 314 311 324 315 311 313 309 309 309 309 310 306 306 306 307 308 306 307 306 306 308 310 308 310 310 311 310 309 314 309 308 313 310 310 308 309 309 308 307
319 320 319 318 318 315 315 319 327 322 314 314 318 309 312 310 310 308 306 306 304 306 306 308 310 307 306 308 308 308 310 314 312 312 314 305 310 312 308 308 307 307 306 304 304
318 319 317 317 316 314 315 322 325 322 320 322 321 324 318 310 310 310 306 307 306 305 309 308 310 308 307 308 308 308 310 310 312 297 307 312 310 310 309 309 307 306 305 304 303
315 317 316 318 317 312 317 323 321 316 319 320 323 322 321 316 320 315 313 308 310 305 306 308 311 309 306 306 307 308 308 311 310 314 312 310 311 313 311 311 307 306 306 304 302
312 317 316 317 312 313 319 319 319 315 316 319 321 322 319 321 319 317 317 313 313 310 308 309 311 312 306 307 309 308 309 308 310 314 317 317 315 308 308 308 308 306 307 303 302
311 315 313 311 314 314 318 316 315 316 315 317 317 319 320 319 321 323 323 319 315 313 316 312 315 319 318 308 305 305 309 310 313 314 311 314 314 313 312 311 310 309 306 305 302
311 311 310 312 317 318 315 316 316 316 316 317 318 317 317 319 321 320 319 317 316 317 319 317 318 320 319 316 311 305 306 308 309 309 315 318 316 312 312 310 311 309 308 304 302
305 310 311 310 313 315 315 316 316 314 316 315 316 315 315 316 316 318 316 316 315 314 315 315 318 318 318 315 314 313 309 307 308 311 312 312 311 310 311 311 311 311 309 303 304
299 303 307 309 311 312 313 313 314 313 312 312 314 314 315 315 315 315 314 313 311 312 314 315 318 317 317 317 317 317 316 315 314 313 315 313 312 311 311 312 312 311 311 308 304
298 300 301 304 303 309 310 309 311 311 310 311 312 311 311 311 311 311 309 308 309 308 308 309 316 316 318 316 314 316 315 315 314 314 315 315 315 313 312 312 311 311 311 311 308
296 297 299 298 299 300 304 305 307 304 307 307 306 303 305 304 302 301 302 303 304 306 306 308 310 313 316 312 311 313 315 315 314 314 315 316 314 307 306 307 310 309 302 303 303
Wind_Speed
10 10 9 9 10 10 10 10 11 11 11 11 12 12 10 8 7 9 7 6 5 9 8 7 5 3 1 2 2 3 3 3 5 3 5 0 3 2 1 2 3 7 4 2 8
10 11 11 10 10 10 11 11 11 11 12 12 12 13 12 8 7 11 11 7 8 10 11 10 4 4 1 2 1 4 3 8 6 2 4 3 6 4 2 5 5 5 3 3 23
12 12 13 12 12 12 12 13 13 12 12 12 12 14 12 9 3 6 3 14 11 10 7 7 4 5 2 3 4 5 6 5 6 5 4 3 3 5 6 8 9 10 10 9 18
16 15 15 16 16 15 15 15 14 14 14 14 13 13 10 3 5 4 1 10 14 13 10 7 4 4 4 5 6 3 9 7 6 4 3 4 2 5 10 20 8 14 5 8 14
17 17 17 18 17 17 18 17 17 17 16 15 14 14 4 0 10 8 5 11 14 14 12 6 6 5 5 4 3 7 6 7 7 8 6 4 11 8 13 14 9 9 8 12 16
16 18 19 20 21 18 17 18 18 18 18 17 15 13 1 5 8 9 9 13 14 18 11 10 7 7 4 5 6 2 5 7 7 10 6 7 8 6 20 5 12 11 16 12 16
16 19 20 22 24 21 19 18 18 18 18 15 13 6 2 14 8 10 13 14 18 16 6 12 9 5 2 4 3 3 8 7 10 6 8 7 9 11 25 2 11 11 12 11 18
15 18 20 21 25 25 22 20 19 17 18 15 9 6 7 8 11 15 14 11 13 14 9 4 6 3 3 4 6 2 1 5 2 7 4 9 14 13 14 7 17 14 12 11 16
14 16 19 21 24 28 27 20 20 17 10 5 7 6 8 3 6 14 16 6 10 5 4 3 4 4 1 3 4 2 6 8 12 10 5 7 11 12 6 9 12 13 12 13 15
13 15 17 20 24 28 24 19 6 1 5 6 3 2 4 6 4 4 12 7 3 4 3 3 3 3 2 4 9 8 6 6 8 4 5 7 16 15 12 8 13 13 12 12 14
13 14 16 19 24 20 23 4 5 1 1 8 7 6 2 5 6 6 7 9 4 3 6 3 4 9 22 14 13 3 6 8 7 10 6 10 17 18 22 11 11 16 19 21 21
12 13 14 17 22 15 9 6 3 1 7 8 12 8 15 4 4 5 11 7 6 8 5 2 10 18 11 5 10 12 18 19 15 15 6 16 23 18 12 19 22 20 21 21 20
12 11 13 15 13 9 8 5 2 1 3 9 6 5 5 11 6 4 11 5 5 6 10 20 11 13 10 7 6 15 15 18 19 6 5 9 19 10 13 14 20 15 20 21 26
13 11 11 11 2 10 1 9 4 2 2 7 4 3 1 5 5 2 4 4 4 12 8 10 9 11 10 8 15 24 13 14 8 4 12 4 23 6 8 13 11 15 17 18 22
12 12 10 5 5 2 4 8 1 2 6 4 2 3 3 4 2 5 3 4 4 4 5 9 5 7 10 22 11 21 5 6 2 4 5 3 6 4 8 7 12 15 15 18 18
11 11 11 7 6 5 5 3 3 4 8 6 1 3 2 3 2 2 3 4 1 3 5 10 2 5 9 4 9 2 4 5 4 1 11 10 9 6 6 7 6 10 15 15 18
13 13 17 11 3 5 4 3 2 6 3 4 0 2 3 3 2 4 4 5 6 3 4 3 6 3 5 4 2 4 5 3 3 1 11 9 6 19 6 11 11 14 15 13 12
10 11 16 20 16 9 1 2 10 1 6 3 1 4 5 5 5 3 4 3 6 2 2 2 17 9 6 10 9 11 12 7 7 9 19 4 10 12 11 11 11 10 13 11 8
7 8 10 17 19 15 2 6 8 8 6 3 6 4 4 3 6 4 7 6 7 14 9 5 16 3 4 3 8 2 5 13 2 2 1 10 14 10 4 9 7 10 13 16 10
3 5 8 16 21 12 3 13 7 5 3 1 6 6 7 4 1 3 4 4 4 10 3 3 7 4 1 2 3 7 3 2 2 5 8 10 9 15 9 6 7 13 14 14 9
3 3 5 19 23 3 10 8 9 7 6 6 6 11 8 5 9 8 7 4 4 3 5 3 5 10 2 7 8 2 5 5 3 4 12 16 15 6 8 1 6 10 10 9 10
3 4 10 31 4 3 13 6 5 6 7 11 6 10 15 13 12 11 8 11 5 2 5 6 5 6 17 11 5 6 15 16 9 10 5 4 10 29 28 20 20 18 10 6 8
2 3 18 10 7 11 5 8 13 11 10 7 9 9 10 12 11 14 15 16 17 15 6 4 4 11 6 11 14 8 10 9 7 3 19 16 14 24 24 22 22 16 18 10 11
2 3 3 3 7 10 15 16 14 7 11 9 12 14 15 18 18 15 20 5 7 16 18 8 14 18 19 17 3 6 9 9 14 14 17 18 24 24 26 28 29 17 16 10 13
2 4 3 5 12 14 14 12 19 19 9 10 12 18 21 17 21 23 15 14 14 16 11 9 22 18 27 26 24 28 29 30 28 30 29 31 29 22 24 28 25 28 25 18 9
2 2 3 4 4 5 14 19 19 20 16 17 14 16 14 12 11 16 8 5 4 6 7 6 12 23 30 29 26 27 33 34 34 33 35 29 30 28 28 29 29 30 28 26 16
3 3 2 4 3 1 6 6 6 2 3 5 4 2 8 6 9 10 10 11 13 11 17 9 9 14 18 8 22 18 24 35 35 29 26 27 26 18 17 21 22 18 19 18 19
Wind_Direction
3 3 3 1 360 359 0 360 358 357 353 353 352 351 339 321 293 257 242 238 207 198 174 161 170 184 200 304 197 95 68 242 247 228 266 190 240 257 336 190 221 208 183 280 163
348 348 346 343 342 342 341 342 343 343 342 342 340 344 337 323 292 249 246 220 209 181 173 165 172 163 324 245 254 114 147 227 219 223 234 240 206 226 204 235 241 272 257 147 162
340 335 334 333 332 330 328 327 329 330 331 332 332 336 333 327 315 242 222 214 200 194 197 185 173 154 225 170 206 188 213 224 263 244 210 231 233 202 199 254 214 215 230 168 175
337 335 333 329 325 321 318 316 317 319 321 323 325 328 326 329 297 228 224 183 197 196 185 185 168 176 213 213 210 221 240 228 262 255 287 250 243 232 198 246 201 226 196 167 192
356 348 343 343 327 317 313 311 311 311 311 313 318 323 324 325 249 256 232 189 195 196 197 181 177 185 209 217 283 221 247 235 251 276 262 290 247 244 263 246 244 242 200 198 204
343 344 345 346 338 323 310 304 303 303 303 306 309 317 208 235 248 242 209 195 201 199 201 187 202 207 230 227 202 247 274 270 265 255 253 212 267 146 266 256 240 239 239 216 211
333 336 340 341 340 328 317 306 302 295 288 287 292 280 213 239 245 232 218 214 209 208 197 211 206 164 179 279 274 313 309 310 252 242 232 177 286 223 247 225 275 250 249 236 222
327 331 333 336 336 332 320 307 300 290 283 277 270 185 238 252 250 227 219 226 216 219 226 235 207 176 180 286 353 310 355 303 310 141 248 143 263 251 252 211 257 264 260 244 244
323 326 329 334 335 332 322 312 299 295 279 250 164 166 259 257 222 239 225 229 211 207 196 148 148 182 39 149 353 265 236 217 303 206 156 183 252 265 235 204 254 263 261 260 266
324 327 331 335 336 337 332 319 319 108 112 126 94 63 266 238 209 216 205 200 136 107 68 125 75 161 7 126 230 220 220 246 240 246 192 229 251 269 272 201 241 261 267 262 258
322 329 333 338 340 347 344 358 3 2 322 195 203 214 228 198 190 188 171 147 110 102 186 218 145 198 226 209 236 207 224 234 251 267 234 233 246 251 265 271 255 258 260 258 254
311 320 329 337 341 347 1 70 152 245 308 261 250 277 255 196 235 220 162 157 154 200 137 231 212 220 229 210 225 241 255 261 269 257 216 267 262 263 256 261 261 259 262 256 256
295 305 319 337 339 5 49 61 351 206 242 289 221 203 234 174 229 215 151 146 173 174 202 232 231 217 222 232 220 232 236 252 255 315 247 290 276 260 253 255 264 253 249 260 257
283 289 300 335 358 350 316 348 343 192 335 272 263 268 176 152 240 139 189 162 192 222 208 245 235 210 205 228 206 260 222 254 260 300 277 128 292 236 251 247 252 255 259 253 262
273 270 275 294 306 289 298 329 321 180 305 267 238 342 345 161 48 10 63 37 217 182 149 243 190 202 212 229 183 253 195 249 226 227 325 200 267 197 213 252 248 252 247 262 264
263 252 248 255 235 258 327 3 173 40 252 305 14 10 10 17 19 9 71 60 133 262 230 246 248 200 214 178 190 139 97 53 58 102 266 193 207 308 176 216 268 258 255 248 261
256 241 225 223 218 171 353 326 24 212 312 248 315 177 208 239 247 171 149 166 190 287 252 295 225 205 161 239 149 149 109 292 308 70 250 186 208 249 252 243 223 248 249 258 257
295 237 231 223 228 198 174 63 227 170 228 0 169 148 205 156 254 173 116 242 238 189 287 245 292 168 172 197 200 215 194 197 207 252 272 115 245 266 226 244 243 278 284 300 289
294 249 214 220 213 195 150 218 232 187 209 247 335 291 223 194 196 194 205 216 226 190 205 198 268 129 211 179 153 189 188 236 338 46 354 263 269 284 247 283 301 291 295 274 252
288 226 217 227 203 168 200 233 227 216 357 30 250 215 226 182 284 180 231 204 231 199 179 255 282 261 72 30 287 192 177 74 213 200 247 273 267 270 297 277 313 358 331 311 301
262 259 211 199 161 192 225 226 231 200 186 202 229 260 245 231 226 225 211 287 236 196 170 168 159 282 105 191 211 189 245 230 199 184 253 258 266 221 219 23 320 310 316 322 303
244 235 182 154 177 215 232 224 212 197 209 240 246 247 258 269 254 231 213 224 197 175 232 206 159 229 267 284 266 215 261 240 238 239 215 231 266 286 272 281 290 282 289 322 274
244 222 181 187 221 222 224 245 227 243 227 205 234 230 228 252 269 241 255 265 268 247 237 182 251 275 262 281 237 215 225 235 258 273 239 242 258 257 270 272 270 271 267 243 241
297 246 187 224 239 242 238 239 238 223 245 231 253 254 263 262 260 268 270 243 248 251 251 257 247 241 252 246 255 225 225 232 236 249 256 241 251 261 270 270 272 272 277 248 262
256 245 285 215 231 243 251 265 266 262 248 258 262 253 258 265 275 266 277 309 290 278 263 233 251 239 248 253 254 257 260 258 252 256 253 257 258 257 261 271 284 292 290 279 264
256 278 342 310 302 251 227 239 249 261 261 258 271 272 286 281 297 292 277 242 265 316 336 325 280 273 260 251 240 238 248 256 262 261 259 262 266 267 274 280 279 278 281 292 328
270 316 274 271 310 96 241 252 265 15 356 324 328 352 261 291 320 295 267 252 247 265 286 269 284 292 280 310 308 281 262 252 254 261 261 264 270 3 352 332 312 328 35 8 357